Weather History for Wolf Creek Pass, CO

Change the Weather History Date:

Friday, March 8, 2013

  Actual Average (KALS) Record (KALS)
Temperature  
Mean Temperature 22 °F 31 °F  
Max Temperature 26 °F 48 °F 67 °F (1989)
Min Temperature 17 °F 15 °F -6 °F (1998)
Degree Days  
Heating Degree Days 44 34  
Month to date heating degree days 281  
Since 1 July heating degree days 6610  
Cooling Degree Days 0 0  
Month to date cooling degree days 0  
Year to date cooling degree days 0  
Moisture  
Dew Point 13 °F    
Average Humidity 76    
Maximum Humidity 100    
Minimum Humidity 47    
Precipitation  
Precipitation 0.21 in 0.01 in 0.26 in (1994)
Month to date precipitation 0.11  
Year to date precipitation 0.63  
Snow  
Snow 0.00 in 0.20 in 2.50 in (1976)
Month to date snowfall 1.2  
Since 1 July snowfall 19.3  
Snow Depth -    
Sea Level Pressure  
Sea Level Pressure 29.95 in    
Wind  
Wind Speed 16 mph (SW)    
Max Wind Speed 33 mph    
Max Gust Speed 48 mph    
Visibility 5 miles    
Events Snow , Thunderstorm    
T = Trace of Precipitation, MM = Missing Value Source: NWS Daily Summary

Daily Weather History Graph

Daily Weather History Graph

Search for Another Location

Airport:

Trip Planner

Search our weather history database for the weather conditions in past years. The results will help you decide how hot, cold, wet, or windy it might be!

Date:

Astronomy

Mar. 08, 2013 Rise Set
Actual Time 6:28 AM MST 6:08 PM MST
Civil Twilight 6:02 AM MST 6:34 PM MST
Nautical Twilight 5:31 AM MST 7:04 PM MST
Astronomical Twilight 5:01 AM MST 7:34 PM MST
Moon 4:11 AM MST (3/8) 3:09 PM MST (3/8)
Length of Visible Light 12h 32m
Length of Day
11h 40m
Waning Crescent, 11% of the Moon is Illuminated
Mar 8
Waning Crescent
Mar 11
New
Mar 19
First Quarter
Mar 27
Full
Apr 2
Last Quarter

Hourly Weather History & Observations

Time (MST) Temp. Windchill Dew Point Humidity Pressure Visibility Wind Dir Wind Speed Gust Speed Precip Events Conditions
12:08 AM 24.8 °F 14.0 °F 10.4 °F 54% 30.13 in 10.0 mi SW 11.5 mph 25.3 mph N/A   Clear
12:29 AM 23.0 °F 11.1 °F 8.6 °F 54% 30.12 in 10.0 mi SW 12.7 mph 18.4 mph N/A   Clear
12:49 AM 23.0 °F 11.1 °F 8.6 °F 54% 30.12 in 10.0 mi SW 12.7 mph 23.0 mph N/A   Clear
1:08 AM 23.0 °F 9.2 °F 10.4 °F 59% 30.12 in 10.0 mi SW 17.3 mph 25.3 mph N/A   Mostly Cloudy
1:29 AM 23.0 °F 8.7 °F 8.6 °F 54% 30.11 in 10.0 mi SW 18.4 mph 25.3 mph N/A   Mostly Cloudy
1:49 AM 23.0 °F 9.2 °F 8.6 °F 54% 30.11 in 10.0 mi SW 17.3 mph 24.2 mph N/A   Scattered Clouds
2:09 AM 23.0 °F 10.1 °F 8.6 °F 54% 30.10 in 10.0 mi SW 15.0 mph 21.9 mph N/A   Clear
2:29 AM 21.2 °F 7.8 °F 8.6 °F 58% 30.10 in 10.0 mi SW 15.0 mph 20.7 mph N/A   Clear
2:49 AM 21.2 °F 8.3 °F 8.6 °F 58% 30.09 in 10.0 mi SW 13.8 mph 20.7 mph N/A   Clear
3:09 AM 21.2 °F 7.3 °F 6.8 °F 54% 30.08 in 10.0 mi SW 16.1 mph 21.9 mph N/A   Clear
3:29 AM 21.2 °F 5.6 °F 6.8 °F 54% 30.07 in 10.0 mi SW 20.7 mph 24.2 mph N/A   Scattered Clouds
3:48 AM 21.2 °F 5.6 °F 5.0 °F 50% 30.07 in 10.0 mi SW 20.7 mph 26.5 mph N/A   Clear
4:09 AM 21.2 °F 5.6 °F 5.0 °F 50% 30.06 in 10.0 mi SW 20.7 mph 27.6 mph N/A   Scattered Clouds
4:30 AM 21.2 °F 6.4 °F 5.0 °F 50% 30.06 in 10.0 mi SW 18.4 mph 27.6 mph N/A   Clear
4:49 AM 21.2 °F 5.6 °F 6.8 °F 54% 30.06 in 10.0 mi SW 20.7 mph 26.5 mph N/A   Scattered Clouds
5:09 AM 21.2 °F 7.3 °F 8.6 °F 58% 30.06 in 10.0 mi SW 16.1 mph 28.8 mph N/A   Scattered Clouds
5:29 AM 19.4 °F 6.0 °F 6.8 °F 58% 30.06 in 10.0 mi SW 13.8 mph - N/A   Scattered Clouds
5:49 AM 19.4 °F 5.5 °F 6.8 °F 58% 30.06 in 10.0 mi SW 15.0 mph - N/A   Clear
6:09 AM 19.4 °F 4.5 °F 5.0 °F 54% 30.06 in 10.0 mi SW 17.3 mph 21.9 mph N/A   Clear
6:34 AM 19.4 °F 6.0 °F 6.8 °F 58% 30.06 in 10.0 mi SW 13.8 mph 21.9 mph N/A   Clear
6:50 AM 19.4 °F 4.5 °F 6.8 °F 58% 30.05 in 10.0 mi SW 17.3 mph 21.9 mph N/A   Mostly Cloudy
7:14 AM 19.4 °F 5.0 °F 6.8 °F 58% 30.05 in 10.0 mi SW 16.1 mph 20.7 mph N/A   Scattered Clouds
7:29 AM 19.4 °F 4.5 °F 6.8 °F 58% 30.05 in 10.0 mi SW 17.3 mph - N/A   Clear
7:49 AM 19.4 °F 5.5 °F 6.8 °F 58% 30.04 in 10.0 mi SW 15.0 mph - N/A   Scattered Clouds
8:08 AM 21.2 °F 7.3 °F 6.8 °F 54% 30.04 in 10.0 mi SW 16.1 mph 20.7 mph N/A   Clear
8:28 AM 23.0 °F 9.6 °F 8.6 °F 54% 30.04 in 10.0 mi SSW 16.1 mph 25.3 mph N/A   Clear
8:49 AM 24.8 °F 10.7 °F 8.6 °F 50% 30.03 in 10.0 mi SSW 19.6 mph 26.5 mph N/A   Clear
9:10 AM 26.6 °F 13.4 °F 8.6 °F 47% 30.03 in 10.0 mi SW 18.4 mph 28.8 mph N/A   Scattered Clouds
9:27 AM 26.6 °F 13.4 °F 8.6 °F 47% 30.02 in 10.0 mi SSW 18.4 mph 27.6 mph N/A   Scattered Clouds
9:48 AM 26.6 °F 15.7 °F 10.4 °F 51% 30.01 in 10.0 mi South 12.7 mph 26.5 mph N/A   Clear
10:08 AM 26.6 °F 14.7 °F 12.2 °F 55% 30.00 in 10.0 mi SSW 15.0 mph 27.6 mph N/A   Clear
10:28 AM 26.6 °F 13.8 °F 12.2 °F 55% 30.00 in 10.0 mi SSW 17.3 mph 26.5 mph N/A   Scattered Clouds
10:48 AM 26.6 °F 10.8 °F 14.0 °F 59% 29.99 in 10.0 mi SSW 27.6 mph 35.7 mph N/A   Mostly Cloudy
11:08 AM 26.6 °F 12.7 °F 14.0 °F 59% 29.99 in 10.0 mi SW 20.7 mph 33.4 mph N/A   Overcast
11:28 AM 24.8 °F 10.3 °F 14.0 °F 64% 29.99 in 10.0 mi SSW 20.7 mph 33.4 mph N/A   Overcast
11:49 AM 23.0 °F 10.1 °F 14.0 °F 68% 29.98 in 7.0 mi SW 15.0 mph 27.6 mph N/A   Overcast
12:10 PM 23.0 °F 8.0 °F 15.8 °F 74% 29.98 in 2.5 mi SSW 20.7 mph 33.4 mph N/A Snow Light Snow
12:29 PM 21.2 °F 6.4 °F 17.6 °F 86% 29.98 in 0.8 mi SW 18.4 mph 28.8 mph N/A Snow Light Snow
12:47 PM 19.4 °F 5.5 °F 19.4 °F 100% 29.97 in 0.5 mi SSW 15.0 mph 24.2 mph N/A Snow Snow
1:09 PM 19.4 °F 4.5 °F 19.4 °F 100% 29.96 in 0.2 mi SSW 17.3 mph 27.6 mph 0.01 in Snow Heavy Snow
1:29 PM 19.4 °F 5.0 °F 19.4 °F 100% 29.94 in 0.2 mi SW 16.1 mph 21.9 mph 0.02 in Snow Snow
1:49 PM 19.4 °F 5.0 °F 19.4 °F 100% 29.93 in 0.2 mi SW 16.1 mph 23.0 mph 0.03 in Snow Heavy Snow
2:09 PM 21.2 °F 10.1 °F 19.4 °F 93% 29.91 in 0.2 mi SW 10.4 mph 19.6 mph N/A Snow Snow
2:29 PM 21.2 °F 12.6 °F 19.4 °F 93% 29.91 in 0.2 mi SSW 6.9 mph 23.0 mph N/A Snow Light Snow
2:48 PM 21.2 °F 8.9 °F 19.4 °F 93% 29.91 in 0.2 mi SSW 12.7 mph 28.8 mph N/A Snow Light Snow
3:09 PM 21.2 °F 8.9 °F 21.2 °F 100% 29.89 in 0.2 mi SSW 12.7 mph 19.6 mph N/A Snow Light Snow
3:29 PM 21.2 °F 10.1 °F 19.4 °F 93% 29.88 in 0.8 mi SSW 10.4 mph 29.9 mph N/A   Overcast
3:48 PM 21.2 °F 10.9 °F 21.2 °F 100% 29.86 in 1.8 mi SSW 9.2 mph 16.1 mph N/A Snow , Thunderstorm Light Thunderstorms and Snow
4:09 PM 21.2 °F 9.5 °F 19.4 °F 93% 29.86 in 0.5 mi SW 11.5 mph - N/A Snow Snow
4:28 PM 21.2 °F 6.4 °F 19.4 °F 93% 29.84 in 0.2 mi WSW 18.4 mph 25.3 mph 0.01 in Snow Heavy Snow
4:47 PM 19.4 °F 6.0 °F 19.4 °F 100% 29.84 in 0.2 mi West 13.8 mph 23.0 mph 0.01 in Snow , Thunderstorm Heavy Thunderstorms and Snow
5:08 PM 19.4 °F 7.2 °F 19.4 °F 100% 29.83 in 0.8 mi SW 11.5 mph - 0.01 in Snow Light Snow
5:29 PM 21.2 °F 13.6 °F 19.4 °F 93% 29.82 in 0.5 mi SW 5.8 mph - 0.04 in Snow , Thunderstorm Snow
5:50 PM 21.2 °F 11.7 °F 19.4 °F 93% 29.82 in 0.2 mi SW 8.1 mph - 0.05 in Snow , Thunderstorm Snow
6:10 PM 19.4 °F - 17.6 °F 93% 29.80 in 0.2 mi North - - 0.01 in Snow , Thunderstorm Heavy Thunderstorms and Snow
6:30 PM 17.6 °F -1.3 °F 17.6 °F 100% 29.82 in 0.2 mi SW 27.6 mph - 0.01 in Snow Heavy Snow
6:49 PM 17.6 °F -2.8 °F 17.6 °F 100% 29.82 in 0.2 mi SW 33.4 mph 48.3 mph 0.01 in Snow Heavy Snow
7:09 PM 17.6 °F -1.6 °F 17.6 °F 100% 29.83 in 0.8 mi SW 28.8 mph - 0.03 in Snow Snow
7:30 PM 17.6 °F - 17.6 °F 100% 29.84 in 1.0 mi North - - 0.06 in Snow Light Snow
7:49 PM 17.6 °F 0.5 °F 17.6 °F 100% 29.82 in 0.8 mi SW 21.9 mph 29.9 mph 0.09 in   Overcast
8:09 PM 17.6 °F 2.7 °F 17.6 °F 100% 29.82 in 0.8 mi SW 16.1 mph 25.3 mph N/A Snow Snow
8:28 PM 17.6 °F 3.2 °F 17.6 °F 100% 29.81 in 0.5 mi SW 15.0 mph - N/A Snow Snow
8:49 PM 17.6 °F 2.7 °F 17.6 °F 100% 29.80 in 0.8 mi SW 16.1 mph 21.9 mph N/A Snow Snow
9:09 PM 17.6 °F 2.2 °F 17.6 °F 100% 29.79 in 0.5 mi SSW 17.3 mph 21.9 mph N/A Snow Snow
9:29 PM 17.6 °F 3.7 °F 17.6 °F 100% 29.79 in 0.5 mi SSW 13.8 mph 23.0 mph 0.01 in Snow Snow
9:49 PM 17.6 °F 1.7 °F 15.8 °F 93% 29.78 in 0.5 mi SW 18.4 mph 24.2 mph 0.01 in Snow Snow
10:09 PM 17.6 °F 1.7 °F 15.8 °F 93% 29.76 in 0.5 mi SW 18.4 mph 32.2 mph N/A Snow Snow
10:28 PM 17.6 °F 1.7 °F 15.8 °F 93% 29.76 in 0.5 mi SW 18.4 mph 28.8 mph 0.01 in Snow Snow
10:48 PM 17.6 °F - 17.6 °F 100% 29.75 in 0.5 mi North - - 0.01 in Snow Snow
11:08 PM 17.6 °F -0.6 °F 15.8 °F 93% 29.76 in 0.5 mi SW 25.3 mph 46.0 mph N/A Snow Snow
11:29 PM 17.6 °F 0.1 °F 14.0 °F 86% 29.75 in 0.5 mi SW 23.0 mph 38.0 mph N/A Snow Snow
11:49 PM 17.6 °F 0.5 °F 15.8 °F 93% 29.74 in 0.5 mi SW 21.9 mph 34.5 mph N/A Snow Snow